TimeCST,TemperatureF,Dew PointF,Humidity,Sea Level PressureIn,VisibilityMPH,Wind Direction,Wind SpeedMPH,Gust SpeedMPH,PrecipitationIn,Events,Conditions,WindDirDegrees,DateUTC
12:53 AM,28.0,17.1,63,30.36,10.0,SW,11.5,-,N/A,,Clear,230,2012-12-30 06:53:00
1:53 AM,28.0,18.0,66,30.38,10.0,SW,12.7,-,N/A,,Clear,220,2012-12-30 07:53:00
2:53 AM,27.0,16.0,63,30.38,10.0,SW,10.4,-,N/A,,Clear,220,2012-12-30 08:53:00
3:53 AM,26.1,16.0,66,30.39,10.0,SW,10.4,-,N/A,,Clear,220,2012-12-30 09:53:00
4:53 AM,26.1,17.1,69,30.38,10.0,SSW,11.5,-,N/A,,Clear,210,2012-12-30 10:53:00
5:53 AM,26.1,17.1,69,30.38,10.0,SSW,10.4,-,N/A,,Clear,210,2012-12-30 11:53:00
6:53 AM,27.0,17.1,66,30.39,10.0,SSW,12.7,-,N/A,,Clear,210,2012-12-30 12:53:00
7:53 AM,28.0,18.0,66,30.39,10.0,SSW,11.5,-,N/A,,Clear,200,2012-12-30 13:53:00
8:53 AM,30.9,19.0,61,30.39,10.0,SSW,11.5,-,N/A,,Clear,210,2012-12-30 14:53:00
9:53 AM,35.1,21.0,57,30.40,10.0,SSW,10.4,-,N/A,,Clear,210,2012-12-30 15:53:00
10:53 AM,37.9,21.9,53,30.40,10.0,SW,12.7,-,N/A,,Clear,220,2012-12-30 16:53:00
11:53 AM,39.9,23.0,51,30.35,10.0,SSW,10.4,-,N/A,,Clear,200,2012-12-30 17:53:00
12:53 PM,41.0,21.9,47,30.31,10.0,SSW,15.0,-,N/A,,Clear,200,2012-12-30 18:53:00
1:53 PM,45.0,19.0,36,30.27,10.0,SW,18.4,28.8,N/A,,Clear,220,2012-12-30 19:53:00
2:53 PM,45.0,18.0,34,30.27,10.0,SSW,16.1,24.2,N/A,,Clear,210,2012-12-30 20:53:00
3:53 PM,44.1,17.1,34,30.25,10.0,SSW,12.7,-,N/A,,Clear,200,2012-12-30 21:53:00
4:53 PM,42.1,17.1,37,30.24,10.0,South,11.5,-,N/A,,Clear,190,2012-12-30 22:53:00
5:53 PM,41.0,17.1,38,30.24,10.0,SSW,11.5,-,N/A,,Clear,200,2012-12-30 23:53:00
6:53 PM,39.9,17.1,40,30.21,10.0,South,16.1,-,N/A,,Clear,190,2012-12-31 00:53:00
7:53 PM,41.0,16.0,36,30.21,10.0,South,18.4,27.6,N/A,,Clear,190,2012-12-31 01:53:00
8:53 PM,39.9,16.0,38,30.19,10.0,SSW,16.1,25.3,N/A,,Clear,200,2012-12-31 02:53:00
9:53 PM,39.9,17.1,40,30.19,10.0,SSW,13.8,25.3,N/A,,Clear,200,2012-12-31 03:53:00
10:53 PM,39.0,17.1,41,30.18,10.0,SSW,11.5,-,N/A,,Clear,200,2012-12-31 04:53:00
11:53 PM,39.0,17.1,41,30.20,10.0,SSW,15.0,21.9,N/A,,Clear,210,2012-12-31 05:53:00